Zurück zum Katalog

DELTA 1 DEB

AktivSSO
NORAD 10721·DEBRIS·🇺🇸 United States

Gestartet Jul 29, 1976 von Vandenberg Space Force Base

Loading…

Nächste Überflüge (nächste 24 Stunden)

TLE

AktuellSource: Space-Track

Epoche: Sep 14, 2026, 07:53 UTC

1 10721U 76077AS  26257.32896111  .00000667  00000-0  38196-2 0  9999
2 10721 101.7830 206.5015 0040208 192.3643 322.1554 12.65250612299589

Verfolge DELTA 1 DEB in Echtzeit mit AllMySat

Download on the App Store